Time,TemperatureF,DewpointF,PressureIn,WindDirection,WindDirectionDegrees,WindSpeedMPH,WindSpeedGustMPH,Humidity,HourlyPrecipIn,Conditions,Clouds,dailyrainin,SoftwareType,DateUTC
2013-08-21 00:02:00,69.4,61.0,30.12,West,274,1.0,-999.0,75,-99.99,,,0.00,weatherlink.com 1.10,2013-08-21 04:02:00,
2013-08-21 00:18:00,69.2,61.0,30.13,West,274,0.0,-999.0,75,-99.99,,,0.00,weatherlink.com 1.10,2013-08-21 04:18:00,
2013-08-21 00:33:00,68.8,61.0,30.13,West,274,2.0,-999.0,76,-99.99,,,0.00,weatherlink.com 1.10,2013-08-21 04:33:00,
2013-08-21 00:48:00,68.9,61.0,30.13,West,274,0.0,-999.0,76,-99.99,,,0.00,weatherlink.com 1.10,2013-08-21 04:48:00,
2013-08-21 01:03:00,69.1,61.0,30.13,West,274,0.0,-999.0,76,-99.99,,,0.00,weatherlink.com 1.10,2013-08-21 05:03:00,
2013-08-21 01:18:00,69.1,61.0,30.12,West,274,0.0,-999.0,76,-99.99,,,0.00,weatherlink.com 1.10,2013-08-21 05:18:00,
2013-08-21 01:33:00,69.2,61.0,30.12,West,274,0.0,-999.0,76,-99.99,,,0.00,weatherlink.com 1.10,2013-08-21 05:33:00,
2013-08-21 01:48:00,69.1,61.0,30.12,West,274,0.0,-999.0,76,-99.99,,,0.00,weatherlink.com 1.10,2013-08-21 05:48:00,
2013-08-21 02:03:00,69.2,61.0,30.12,West,274,0.0,-999.0,76,-99.99,,,0.00,weatherlink.com 1.10,2013-08-21 06:03:00,
2013-08-21 02:18:00,69.2,61.0,30.12,West,274,0.0,-999.0,76,-99.99,,,0.00,weatherlink.com 1.10,2013-08-21 06:18:00,
2013-08-21 02:33:00,69.2,61.0,30.12,West,274,0.0,-999.0,76,-99.99,,,0.00,weatherlink.com 1.10,2013-08-21 06:33:00,
2013-08-21 02:48:00,68.6,61.0,30.12,West,274,0.0,-999.0,77,-99.99,,,0.00,weatherlink.com 1.10,2013-08-21 06:48:00,
2013-08-21 03:03:00,69.0,61.0,30.12,West,274,0.0,-999.0,76,-99.99,,,0.00,weatherlink.com 1.10,2013-08-21 07:03:00,
2013-08-21 03:18:00,68.8,61.0,30.12,West,274,0.0,-999.0,76,-99.99,,,0.00,weatherlink.com 1.10,2013-08-21 07:18:00,
2013-08-21 03:33:00,68.0,61.0,30.12,West,274,0.0,-999.0,78,-99.99,,,0.00,weatherlink.com 1.10,2013-08-21 07:33:00,
2013-08-21 03:48:00,68.1,61.0,30.12,West,274,0.0,-999.0,79,-99.99,,,0.00,weatherlink.com 1.10,2013-08-21 07:48:00,
2013-08-21 04:03:00,68.3,61.0,30.12,West,274,1.0,-999.0,78,-99.99,,,0.00,weatherlink.com 1.10,2013-08-21 08:03:00,
2013-08-21 04:18:00,68.2,61.0,30.12,West,274,1.0,-999.0,77,-99.99,,,0.00,weatherlink.com 1.10,2013-08-21 08:18:00,
2013-08-21 04:33:00,68.2,61.0,30.13,West,274,1.0,-999.0,77,-99.99,,,0.00,weatherlink.com 1.10,2013-08-21 08:33:00,
2013-08-21 04:48:00,68.4,61.0,30.13,West,274,1.0,-999.0,77,-99.99,,,0.00,weatherlink.com 1.10,2013-08-21 08:48:00,
2013-08-21 05:03:00,68.4,61.0,30.13,West,274,1.0,-999.0,77,-99.99,,,0.00,weatherlink.com 1.10,2013-08-21 09:03:00,
2013-08-21 05:18:00,67.7,61.0,30.14,West,274,0.0,-999.0,78,-99.99,,,0.00,weatherlink.com 1.10,2013-08-21 09:18:00,
2013-08-21 05:33:00,66.9,61.0,30.14,West,274,0.0,-999.0,80,-99.99,,,0.00,weatherlink.com 1.10,2013-08-21 09:33:00,
2013-08-21 05:48:00,66.7,61.0,30.14,West,274,0.0,-999.0,81,-99.99,,,0.00,weatherlink.com 1.10,2013-08-21 09:48:00,
2013-08-21 06:03:00,67.3,61.0,30.14,West,274,1.0,-999.0,80,-99.99,,,0.00,weatherlink.com 1.10,2013-08-21 10:03:00,
2013-08-21 06:18:00,68.6,62.0,30.15,West,274,1.0,-999.0,78,-99.99,,,0.00,weatherlink.com 1.10,2013-08-21 10:18:00,
2013-08-21 06:33:00,68.3,61.0,30.15,West,274,0.0,-999.0,78,-99.99,,,0.00,weatherlink.com 1.10,2013-08-21 10:33:00,
2013-08-21 06:48:00,68.1,61.0,30.15,West,274,2.0,-999.0,79,-99.99,,,0.00,weatherlink.com 1.10,2013-08-21 10:48:00,
2013-08-21 07:03:00,69.3,62.0,30.15,West,274,1.0,-999.0,78,-99.99,,,0.00,weatherlink.com 1.10,2013-08-21 11:03:00,
2013-08-21 07:18:00,69.9,63.0,30.16,West,274,1.0,-999.0,78,-99.99,,,0.00,weatherlink.com 1.10,2013-08-21 11:18:00,
2013-08-21 07:33:00,70.7,63.0,30.16,West,274,1.0,-999.0,77,-99.99,,,0.00,weatherlink.com 1.10,2013-08-21 11:33:00,
2013-08-21 07:48:00,71.8,64.0,30.16,West,274,0.0,-999.0,77,-99.99,,,0.00,weatherlink.com 1.10,2013-08-21 11:48:00,
2013-08-21 08:03:00,72.8,64.0,30.16,West,274,0.0,-999.0,74,-99.99,,,0.00,weatherlink.com 1.10,2013-08-21 12:03:00,
2013-08-21 08:18:00,73.7,64.0,30.16,West,274,1.0,-999.0,72,-99.99,,,0.00,weatherlink.com 1.10,2013-08-21 12:18:00,
2013-08-21 08:33:00,74.5,65.0,30.16,West,274,0.0,-999.0,71,-99.99,,,0.00,weatherlink.com 1.10,2013-08-21 12:33:00,
2013-08-21 08:48:00,75.2,65.0,30.16,West,274,1.0,-999.0,70,-99.99,,,0.00,weatherlink.com 1.10,2013-08-21 12:48:00,
2013-08-21 09:03:00,75.7,64.0,30.16,West,274,1.0,-999.0,68,-99.99,,,0.00,weatherlink.com 1.10,2013-08-21 13:03:00,
2013-08-21 09:18:00,75.6,64.0,30.16,West,274,3.0,-999.0,67,-99.99,,,0.00,weatherlink.com 1.10,2013-08-21 13:18:00,
2013-08-21 09:33:00,76.0,63.0,30.16,West,274,2.0,-999.0,65,-99.99,,,0.00,weatherlink.com 1.10,2013-08-21 13:33:00,
2013-08-21 09:48:00,76.8,64.0,30.16,West,281,4.0,-999.0,65,-99.99,,,0.00,weatherlink.com 1.10,2013-08-21 13:48:00,
2013-08-21 10:03:00,76.6,64.0,30.16,West,271,2.0,-999.0,65,-99.99,,,0.00,weatherlink.com 1.10,2013-08-21 14:03:00,
2013-08-21 10:19:00,77.1,64.0,30.16,WNW,292,2.0,-999.0,65,-99.99,,,0.00,weatherlink.com 1.10,2013-08-21 14:19:00,
2013-08-21 10:34:00,77.4,65.0,30.16,NW,310,0.0,-999.0,66,-99.99,,,0.00,weatherlink.com 1.10,2013-08-21 14:34:00,
2013-08-21 10:49:00,78.0,65.0,30.16,West,271,3.0,-999.0,65,-99.99,,,0.00,weatherlink.com 1.10,2013-08-21 14:49:00,
2013-08-21 11:04:00,78.2,65.0,30.16,SSW,200,5.0,-999.0,63,-99.99,,,0.00,weatherlink.com 1.10,2013-08-21 15:04:00,
2013-08-21 11:19:00,79.6,63.0,30.16,SSW,207,7.0,-999.0,57,-99.99,,,0.00,weatherlink.com 1.10,2013-08-21 15:19:00,
2013-08-21 11:34:00,79.0,64.0,30.16,WNW,290,2.0,-999.0,61,-99.99,,,0.00,weatherlink.com 1.10,2013-08-21 15:34:00,
2013-08-21 11:49:00,79.8,64.0,30.16,NNW,328,1.0,-999.0,58,-99.99,,,0.00,weatherlink.com 1.10,2013-08-21 15:49:00,
2013-08-21 12:04:00,79.4,64.0,30.16,WSW,246,4.0,-999.0,59,-99.99,,,0.00,weatherlink.com 1.10,2013-08-21 16:04:00,
2013-08-21 12:19:00,80.2,64.0,30.15,WNW,283,6.0,-999.0,59,-99.99,,,0.00,weatherlink.com 1.10,2013-08-21 16:19:00,
2013-08-21 12:34:00,79.6,63.0,30.15,NNW,336,1.0,-999.0,58,-99.99,,,0.00,weatherlink.com 1.10,2013-08-21 16:34:00,
2013-08-21 12:49:00,80.3,65.0,30.14,West,281,4.0,-999.0,59,-99.99,,,0.00,weatherlink.com 1.10,2013-08-21 16:49:00,
2013-08-21 13:04:00,79.7,64.0,30.14,SW,221,4.0,-999.0,59,-99.99,,,0.00,weatherlink.com 1.10,2013-08-21 17:04:00,
2013-08-21 13:19:00,80.4,64.0,30.14,West,271,1.0,-999.0,58,-99.99,,,0.00,weatherlink.com 1.10,2013-08-21 17:19:00,
2013-08-21 13:34:00,81.6,65.0,30.13,WNW,282,2.0,-999.0,58,-99.99,,,0.00,weatherlink.com 1.10,2013-08-21 17:34:00,
2013-08-21 13:49:00,82.2,65.0,30.12,SW,229,5.0,-999.0,56,-99.99,,,0.00,weatherlink.com 1.10,2013-08-21 17:49:00,
2013-08-21 14:04:00,80.8,64.0,30.12,WNW,298,3.0,-999.0,57,-99.99,,,0.00,weatherlink.com 1.10,2013-08-21 18:04:00,
2013-08-21 14:19:00,82.1,63.0,30.12,WNW,301,1.0,-999.0,53,-99.99,,,0.00,weatherlink.com 1.10,2013-08-21 18:19:00,
2013-08-21 14:34:00,82.8,64.0,30.11,SW,223,5.0,-999.0,54,-99.99,,,0.00,weatherlink.com 1.10,2013-08-21 18:34:00,
2013-08-21 14:49:00,82.7,64.0,30.11,WNW,289,1.0,-999.0,53,-99.99,,,0.00,weatherlink.com 1.10,2013-08-21 18:49:00,
2013-08-21 15:04:00,83.2,64.0,30.11,WSW,251,2.0,-999.0,52,-99.99,,,0.00,weatherlink.com 1.10,2013-08-21 19:04:00,
2013-08-21 15:19:00,82.1,65.0,30.11,WNW,284,3.0,-999.0,56,-99.99,,,0.00,weatherlink.com 1.10,2013-08-21 19:19:00,
2013-08-21 15:34:00,82.6,65.0,30.10,WSW,258,1.0,-999.0,56,-99.99,,,0.00,weatherlink.com 1.10,2013-08-21 19:34:00,
2013-08-21 15:49:00,84.0,65.0,30.10,NW,306,4.0,-999.0,53,-99.99,,,0.00,weatherlink.com 1.10,2013-08-21 19:49:00,
2013-08-21 16:04:00,83.4,63.0,30.09,North,355,4.0,-999.0,51,-99.99,,,0.00,weatherlink.com 1.10,2013-08-21 20:04:00,
2013-08-21 16:19:00,81.9,62.0,30.09,WNW,289,2.0,-999.0,51,-99.99,,,0.00,weatherlink.com 1.10,2013-08-21 20:19:00,
2013-08-21 16:34:00,82.6,64.0,30.09,NW,304,3.0,-999.0,53,-99.99,,,0.00,weatherlink.com 1.10,2013-08-21 20:34:00,
2013-08-21 16:49:00,82.7,63.0,30.09,SSW,213,2.0,-999.0,52,-99.99,,,0.00,weatherlink.com 1.10,2013-08-21 20:49:00,
2013-08-21 17:04:00,82.8,63.0,30.08,West,263,2.0,-999.0,52,-99.99,,,0.00,weatherlink.com 1.10,2013-08-21 21:04:00,
2013-08-21 17:19:00,81.8,63.0,30.07,West,271,3.0,-999.0,54,-99.99,,,0.00,weatherlink.com 1.10,2013-08-21 21:19:00,
2013-08-21 17:34:00,81.6,63.0,30.08,WSW,256,0.0,-999.0,54,-99.99,,,0.00,weatherlink.com 1.10,2013-08-21 21:34:00,
2013-08-21 17:49:00,81.2,64.0,30.08,West,259,1.0,-999.0,56,-99.99,,,0.00,weatherlink.com 1.10,2013-08-21 21:49:00,
2013-08-21 18:04:00,81.2,65.0,30.07,West,259,2.0,-999.0,58,-99.99,,,0.00,weatherlink.com 1.10,2013-08-21 22:04:00,
2013-08-21 18:19:00,80.0,65.0,30.07,West,259,0.0,-999.0,60,-99.99,,,0.00,weatherlink.com 1.10,2013-08-21 22:19:00,
2013-08-21 18:34:00,78.7,66.0,30.06,West,259,0.0,-999.0,65,-99.99,,,0.00,weatherlink.com 1.10,2013-08-21 22:34:00,
2013-08-21 18:49:00,77.4,66.0,30.06,West,259,0.0,-999.0,67,-99.99,,,0.00,weatherlink.com 1.10,2013-08-21 22:49:00,
2013-08-21 19:04:00,76.5,65.0,30.06,West,259,1.0,-999.0,68,-99.99,,,0.00,weatherlink.com 1.10,2013-08-21 23:04:00,
2013-08-21 19:19:00,75.4,64.0,30.06,West,259,0.0,-999.0,67,-99.99,,,0.00,weatherlink.com 1.10,2013-08-21 23:19:00,
2013-08-21 19:34:00,74.6,63.0,30.06,West,259,0.0,-999.0,68,-99.99,,,0.00,weatherlink.com 1.10,2013-08-21 23:34:00,
2013-08-21 19:49:00,74.2,63.0,30.06,West,259,0.0,-999.0,68,-99.99,,,0.00,weatherlink.com 1.10,2013-08-21 23:49:00,
2013-08-21 20:04:00,72.9,63.0,30.06,West,259,0.0,-999.0,70,-99.99,,,0.00,weatherlink.com 1.10,2013-08-22 00:04:00,
2013-08-21 20:19:00,72.2,63.0,30.06,West,259,0.0,-999.0,72,-99.99,,,0.00,weatherlink.com 1.10,2013-08-22 00:19:00,
2013-08-21 20:34:00,71.7,63.0,30.06,West,259,0.0,-999.0,73,-99.99,,,0.00,weatherlink.com 1.10,2013-08-22 00:34:00,
2013-08-21 20:49:00,71.5,62.0,30.07,West,259,0.0,-999.0,73,-99.99,,,0.00,weatherlink.com 1.10,2013-08-22 00:49:00,
2013-08-21 21:04:00,71.3,63.0,30.07,West,259,0.0,-999.0,74,-99.99,,,0.00,weatherlink.com 1.10,2013-08-22 01:04:00,
2013-08-21 21:19:00,72.0,63.0,30.06,West,259,0.0,-999.0,74,-99.99,,,0.00,weatherlink.com 1.10,2013-08-22 01:19:00,
2013-08-21 21:34:00,71.8,63.0,30.06,West,259,0.0,-999.0,74,-99.99,,,0.00,weatherlink.com 1.10,2013-08-22 01:34:00,
2013-08-21 21:49:00,71.2,63.0,30.07,West,259,0.0,-999.0,75,-99.99,,,0.00,weatherlink.com 1.10,2013-08-22 01:49:00,
2013-08-21 22:04:00,71.1,63.0,30.07,WSW,251,1.0,-999.0,76,-99.99,,,0.00,weatherlink.com 1.10,2013-08-22 02:04:00,
2013-08-21 22:19:00,70.9,63.0,30.07,WSW,250,0.0,-999.0,76,-99.99,,,0.00,weatherlink.com 1.10,2013-08-22 02:19:00,
2013-08-21 22:34:00,70.4,63.0,30.07,WSW,250,1.0,-999.0,77,-99.99,,,0.00,weatherlink.com 1.10,2013-08-22 02:34:00,
2013-08-21 22:49:00,70.1,63.0,30.06,WSW,250,0.0,-999.0,78,-99.99,,,0.00,weatherlink.com 1.10,2013-08-22 02:49:00,
2013-08-21 23:04:00,69.7,63.0,30.06,WSW,250,1.0,-999.0,80,-99.99,,,0.00,weatherlink.com 1.10,2013-08-22 03:04:00,
2013-08-21 23:19:00,69.6,63.0,30.05,WSW,244,1.0,-999.0,80,-99.99,,,0.00,weatherlink.com 1.10,2013-08-22 03:19:00,
2013-08-21 23:34:00,69.4,63.0,30.05,WSW,244,0.0,-999.0,81,-99.99,,,0.00,weatherlink.com 1.10,2013-08-22 03:34:00,
2013-08-21 23:50:00,69.3,63.0,30.04,WSW,244,2.0,-999.0,81,-99.99,,,0.00,weatherlink.com 1.10,2013-08-22 03:50:00,